Regional Weather Roundup
Issued by NWS Sterling, VA

Home | Current Version | Previous Version | Text Only | Print | Product List | Glossary Off
Versions: 1 2 3 4 5 6 7 8 9 10 11 12 13 14 15 16 17 18 19 20 21 22 23 24 25 26 27 28

000
ASUS41 KLWX 111910
RWRLWX

REGIONAL WEATHER ROUNDUP
NATIONAL WEATHER SERVICE BALTIMORE MD/WASHINGTON DC
200 PM EST MON DEC 11 2017

Note: "FAIR" indicates few or no clouds below 12,000 feet
with no significant weather and/or obstructions to visibility.
 TC=TEMPERATURE CELSIUS

 * =Non NWS site. Station does not report precipitation (e.g. rain,
    snow, etc.), thunder, or fog.

DCZ001-MDZ009-015-VAZ040>042-051-053>054-112000-
WASHINGTON METRO

CITY           SKY/WX    TMP DP  RH WIND       PRES   REMARKS
WASHINGTON NAT PTSUNNY   48  25  40 SE6       30.00F
DULLES         PTSUNNY   47  24  40 VRB5      29.98F
ANDREWS AFB    SUNNY     47  23  38 SW7       29.99F
FT BELVOIR     SUNNY     49  23  36 N3        29.99F
QUANTICO       MOSUNNY   49  32  52 S7        30.01F
COLLEGE PARK*  SUNNY     46  22  38 CALM      29.99F
LEESBURG*      SUNNY     48  28  46 CALM      29.99F
MANASSAS*      SUNNY     49  25  39 NW5       29.99F
GAITHERSBURG*  SUNNY     44  25  47 SW7       29.99F

$$

MDZ006>007-011-014-112000-
BALTIMORE METRO

CITY           SKY/WX    TMP DP  RH WIND       PRES   REMARKS
BWI AIRPORT    PTSUNNY   45  24  43 W6        30.00F
MD SCIENCE CTR   N/A     47  23  38 MISG      30.00F
MARTIN STATE   PTSUNNY   45  25  45 W6        30.02F
ANNAPOLIS      CLOUDY    46  26  45 SW5       30.01F
FORT MEADE*    SUNNY     45  27  49 W7        30.02F

$$

MDZ012-015-019>023-112000-
MARYLAND EASTERN SHORE

CITY           SKY/WX    TMP DP  RH WIND       PRES   REMARKS
OCEAN CITY     SUNNY     45  31  58 S8        30.04F
SALISBURY      SUNNY     45  27  49 CALM      30.02F
BAY BRIDGE AP* CLOUDY    46  27  46 SW5       30.01F
CAMBRIDGE*     SUNNY     45  25  45 CALM      30.02F
EASTON*        SUNNY     46  27  46 W5        30.05

$$

MDZ017>025-112000-
SOUTHERN MARYLAND

CITY           SKY/WX    TMP DP  RH WIND       PRES   REMARKS
PATUXENT RIVER MOSUNNY   45  29  53 E8        30.02F
ST INIGOES     SUNNY     45  31  58 SW6       30.01F
LEONARDTOWN*   SUNNY     45  27  49 SW5       30.02F

$$

MDZ003>005-112000-
NORTH CENTRAL MARYLAND

CITY           SKY/WX    TMP DP  RH WIND       PRES   REMARKS
FREDERICK*     SUNNY     46  19  34 W8        30.03F
HAGERSTOWN APT SUNNY     44  21  40 S9        29.97F
WESTMINSTER*   SUNNY     43  25  49 W10       29.98F

$$

MDZ501>502-112000-
WESTERN MARYLAND

CITY           SKY/WX    TMP DP  RH WIND       PRES   REMARKS
OAKLAND*       CLOUDY    32  19  59 SW8       29.87S WCI  25
CUMBERLAND*    SUNNY     45  21  39 S10       29.99F

$$

VAZ025>031-112000-
SHENANDOAH VALLEY

CITY           SKY/WX    TMP DP  RH WIND       PRES   REMARKS
WINCHESTER*    SUNNY     45  23  42 SW6       29.96F
FRONT ROYAL*   FAIR      46  23  39 MISG      29.96F
LURAY*         SUNNY     46  27  46 S6        29.96F
NEW MARKET*    SUNNY     46  22  38 SW5       29.96F
STAUNTON*      SUNNY     46  24  43 S6        29.98F
WAYNESBORO*    SUNNY     45  24  44 S8        29.96F

$$

WVZ021-048>050-054>055-112000-
EASTERN WEST VIRGINIA PANHANDLE

CITY           SKY/WX    TMP DP  RH WIND       PRES   REMARKS
MARTINSBURG    SUNNY     46  22  38 VRB7      29.96F
PETERSBURG*    SUNNY     47  20  34 SE3       29.93F

$$

VAZ036>039-050-112000-
CENTRAL FOOTHILLS

CITY           SKY/WX    TMP DP  RH WIND       PRES   REMARKS
CHARLOTTESVILL SUNNY     50  23  34 VRB7      29.99R
CULPEPER*      FAIR      50  23  34 SW8       30.00R
ORANGE*        SUNNY     46  25  42 CALM      29.98S
GORDONSVILLE*  SUNNY     49  24  38 SW5       29.99R
WARRENTON*     SUNNY     51  20  29 SW5       29.98S

$$

VAZ055>057-112000-
NORTH AND CENTRAL PIEDMONT

CITY           SKY/WX    TMP DP  RH WIND       PRES   REMARKS
FREDERICKSBRG* SUNNY     50  26  39 CALM      29.99S
STAFFORD*      SUNNY     49  24  36 SE3       30.03F

$$

NCZ024-NYZ072-PAZ021-071-VAZ022-071-112000-
OTHER REGIONAL OBSERVATIONS

CITY           SKY/WX    TMP DP  RH WIND       PRES   REMARKS
NEW YORK CITY  SUNNY     41  20  43 VRB3      30.00F
PHILADELPHIA   PTSUNNY   42  22  44 W14       30.02F
PITTSBURGH     CLOUDY    37  20  50 SW10      29.91F
ROANOKE        SUNNY     50  26  39 SW13      29.99F
RICHMOND       MOSUNNY   48  31  51 S9        30.02S
RALEIGH        SUNNY     54  29  38 VRB5      30.05F

$$

ANZ530>537-112000-
MARINE OBSERVATIONS

STATION/POSITION TIME  TEMP    WIND        PRES
                       AIR SEA DIR/SP/G
                 (UTC) (F)     (DEG/KT/KT) (MB)
THOMAS PT LIGHT  1900   42 48  160/  9/ 10   N/A
BALT KEY BRIDGE  1848   44     270/  7/  8 1015.5F
COVE POINT       1848   43     140/  5/  8 1017.0F
LEWISETTA        1848   42 44  100/  4/  5 1016.5F
SOLOMONS ISLAND  1848   45 49   30/  2/  2 1016.1F
PINEY POINT      1848          160/  4/  5   N/A

$$





USA.gov is the U.S. government's official web portal to all federal, state and local government web resources and services.